SUR4070 SPZO-SPJC

Flight info

Callsign SUR4070
Flight time N/A
Altitude 26000
Route GAXU1B GAXUN UT321 UDENI UT332 PEROV PEROV6
Aircraft E175/L-S/1200

Departure

Time 2026-04-27 18:20
Airport Alejandro Velasco Astete International Airport (SPZO)

Arrival

Time N/A
Airport Jorge Chávez International Airport (SPJC)
Time Latitude Longitude Altitude Speed Heading
2026-04-27 18:10 -13.53730 -71.94494 10847 ft 0 kts 260°
2026-04-27 18:11 -13.53730 -71.94495 10847 ft 0 kts 288°
2026-04-27 18:11 -13.53712 -71.94495 10847 ft 6 kts
2026-04-27 18:11 -13.53658 -71.94504 10846 ft 8 kts 314°
2026-04-27 18:12 -13.53643 -71.94552 10848 ft 5 kts 277°
2026-04-27 18:12 -13.53638 -71.94589 10850 ft 4 kts 277°
2026-04-27 18:12 -13.53635 -71.94624 10852 ft 6 kts 275°
2026-04-27 18:12 -13.53630 -71.94679 10855 ft 9 kts 274°
2026-04-27 18:13 -13.53625 -71.94759 10859 ft 12 kts 274°
2026-04-27 18:13 -13.53616 -71.94853 10864 ft 12 kts 276°
2026-04-27 18:13 -13.53607 -71.94923 10868 ft 7 kts 278°
2026-04-27 18:13 -13.53601 -71.94959 10870 ft 2 kts 279°
2026-04-27 18:14 -13.53597 -71.94982 10871 ft 3 kts 279°
2026-04-27 18:14 -13.53593 -71.95011 10873 ft 4 kts 279°
2026-04-27 18:14 -13.53588 -71.95039 10875 ft 3 kts 279°
2026-04-27 18:14 -13.53583 -71.95071 10878 ft 8 kts 278°
2026-04-27 18:15 -13.53582 -71.95147 10884 ft 8 kts 272°
2026-04-27 18:15 -13.53580 -71.95180 10887 ft 1 kts 275°
2026-04-27 18:15 -13.53579 -71.95184 10887 ft 1 kts 275°
2026-04-27 18:15 -13.53576 -71.95214 10889 ft 7 kts 277°
2026-04-27 18:16 -13.53566 -71.95286 10893 ft 10 kts 276°
2026-04-27 18:16 -13.53560 -71.95342 10896 ft 5 kts 275°
2026-04-27 18:16 -13.53558 -71.95366 10897 ft 1 kts 275°
2026-04-27 18:16 -13.53556 -71.95380 10898 ft 6 kts 274°
2026-04-27 18:17 -13.53544 -71.95423 10900 ft 5 kts 296°
2026-04-27 18:17 -13.53530 -71.95446 10901 ft 3 kts 312°
2026-04-27 18:17 -13.53503 -71.95458 10900 ft 0 kts 351°
2026-04-27 18:18 -13.53478 -71.95450 10899 ft 8 kts 21°
2026-04-27 18:18 -13.53420 -71.95414 10894 ft 10 kts 71°
2026-04-27 18:18 -13.53418 -71.95400 10893 ft 0 kts 89°
2026-04-27 18:19 -13.53440 -71.95136 10879 ft 72 kts 96°
2026-04-27 18:19 -13.53517 -71.94392 10840 ft 133 kts 95°
2026-04-27 18:19 -13.53639 -71.93282 10799 ft 180 kts 98°
2026-04-27 18:19 -13.53834 -71.91966 11118 ft 196 kts 101°
2026-04-27 18:20 -13.53999 -71.90507 11345 ft 208 kts 95°
2026-04-27 18:20 -13.54324 -71.88992 11722 ft 228 kts 106°
2026-04-27 18:20 -13.54845 -71.87373 12105 ft 249 kts 116°
2026-04-27 18:20 -13.55563 -71.85680 12482 ft 270 kts 111°
2026-04-27 18:21 -13.56219 -71.83782 12848 ft 292 kts 111°
2026-04-27 18:21 -13.57301 -71.81943 13230 ft 309 kts 122°
2026-04-27 18:21 -13.57997 -71.79868 13555 ft 312 kts 92°
2026-04-27 18:21 -13.57605 -71.77699 13912 ft 311 kts 62°
2026-04-27 18:22 -13.56238 -71.76023 14250 ft 308 kts 32°
2026-04-27 18:22 -13.54234 -71.75280 14667 ft 303 kts
2026-04-27 18:22 -13.52175 -71.75658 15100 ft 305 kts 334°
2026-04-27 18:22 -13.50452 -71.76942 15534 ft 307 kts 315°
2026-04-27 18:23 -13.49004 -71.78533 15934 ft 308 kts 311°
2026-04-27 18:23 -13.47617 -71.80222 16332 ft 310 kts 309°
2026-04-27 18:23 -13.46267 -71.81941 16705 ft 309 kts 308°
2026-04-27 18:23 -13.45161 -71.83813 17072 ft 311 kts 292°
2026-04-27 18:24 -13.44373 -71.85899 17480 ft 313 kts 291°
2026-04-27 18:24 -13.43596 -71.87988 17866 ft 316 kts 291°
2026-04-27 18:24 -13.42813 -71.90104 18249 ft 317 kts 291°
2026-04-27 18:24 -13.42034 -71.92213 18636 ft 319 kts 291°
2026-04-27 18:25 -13.41244 -71.94353 19029 ft 319 kts 291°
2026-04-27 18:25 -13.40452 -71.96499 19417 ft 322 kts 291°
2026-04-27 18:25 -13.39663 -71.98631 19797 ft 324 kts 290°
2026-04-27 18:25 -13.38861 -72.00803 20179 ft 326 kts 290°
2026-04-27 18:26 -13.38052 -72.02992 20558 ft 330 kts 290°
2026-04-27 18:26 -13.37238 -72.05196 20944 ft 334 kts 290°
2026-04-27 18:26 -13.36409 -72.07439 21332 ft 339 kts 290°
2026-04-27 18:26 -13.35570 -72.09712 21713 ft 347 kts 290°
2026-04-27 18:27 -13.34705 -72.12049 22088 ft 354 kts 290°
2026-04-27 18:27 -13.33824 -72.14430 22472 ft 360 kts 289°
2026-04-27 18:27 -13.32923 -72.16868 22888 ft 367 kts 290°
2026-04-27 18:27 -13.32018 -72.19312 23304 ft 372 kts 290°
2026-04-27 18:28 -13.31083 -72.21838 23732 ft 378 kts 290°
2026-04-27 18:28 -13.30155 -72.24343 24178 ft 382 kts 290°
2026-04-27 18:28 -13.29203 -72.26913 24627 ft 387 kts 290°
2026-04-27 18:28 -13.28243 -72.29501 25077 ft 391 kts 290°
2026-04-27 18:29 -13.27274 -72.32115 25526 ft 394 kts 290°
2026-04-27 18:29 -13.26292 -72.34763 25975 ft 398 kts 290°
2026-04-27 18:29 -13.25319 -72.37383 26417 ft 400 kts 290°
2026-04-27 18:29 -13.24320 -72.40073 26695 ft 408 kts 290°
2026-04-27 18:30 -13.23288 -72.42853 26715 ft 421 kts 291°
2026-04-27 18:30 -13.22235 -72.45688 26707 ft 431 kts 291°
2026-04-27 18:30 -13.21174 -72.48544 26696 ft 432 kts 290°
2026-04-27 18:30 -13.20100 -72.51432 26687 ft 432 kts 290°
2026-04-27 18:31 -13.19035 -72.54295 26690 ft 431 kts 290°
2026-04-27 18:31 -13.17965 -72.57171 26688 ft 431 kts 290°
2026-04-27 18:31 -13.16909 -72.60007 26685 ft 430 kts 290°
2026-04-27 18:31 -13.15832 -72.62900 26680 ft 431 kts 290°
2026-04-27 18:32 -13.14760 -72.65776 26674 ft 432 kts 291°
2026-04-27 18:32 -13.13698 -72.68626 26672 ft 430 kts 291°
2026-04-27 18:32 -13.12617 -72.71525 26665 ft 431 kts 291°
2026-04-27 18:32 -13.11548 -72.74390 26656 ft 430 kts 291°
2026-04-27 18:33 -13.10486 -72.77238 26648 ft 432 kts 291°
2026-04-27 18:33 -13.09669 -72.80185 26643 ft 431 kts 282°
2026-04-27 18:33 -13.08976 -72.83164 26649 ft 430 kts 284°
2026-04-27 18:33 -13.08289 -72.86157 26643 ft 432 kts 283°
2026-04-27 18:34 -13.07605 -72.89180 26636 ft 431 kts 283°
2026-04-27 18:34 -13.06938 -72.92136 26644 ft 431 kts 283°
2026-04-27 18:34 -13.06258 -72.95152 26642 ft 432 kts 283°
2026-04-27 18:34 -13.05584 -72.98141 26647 ft 432 kts 283°
2026-04-27 18:35 -13.04913 -73.01114 26647 ft 431 kts 283°
2026-04-27 18:35 -13.04230 -73.04141 26646 ft 432 kts 283°
2026-04-27 18:35 -13.03553 -73.07136 26645 ft 431 kts 283°
2026-04-27 18:35 -13.02884 -73.10101 26652 ft 430 kts 283°
2026-04-27 18:36 -13.02208 -73.13088 26670 ft 431 kts 283°
2026-04-27 18:36 -13.01527 -73.16096 26681 ft 430 kts 283°
2026-04-27 18:36 -13.00858 -73.19053 26686 ft 430 kts 283°
2026-04-27 18:36 -13.00184 -73.22026 26693 ft 431 kts 283°
2026-04-27 18:37 -12.99502 -73.25039 26707 ft 431 kts 283°
2026-04-27 18:37 -12.98825 -73.28024 26697 ft 430 kts 283°
2026-04-27 18:37 -12.98145 -73.31019 26668 ft 430 kts 283°
2026-04-27 18:37 -12.97465 -73.34016 26632 ft 431 kts 283°
2026-04-27 18:38 -12.96789 -73.36993 26630 ft 431 kts 283°
2026-04-27 18:38 -12.96114 -73.39962 26638 ft 430 kts 283°
2026-04-27 18:38 -12.95428 -73.42978 26622 ft 431 kts 283°
2026-04-27 18:38 -12.94750 -73.45958 26610 ft 431 kts 283°
2026-04-27 18:39 -12.94077 -73.48917 26576 ft 431 kts 283°
2026-04-27 18:39 -12.93393 -73.51918 26547 ft 432 kts 283°
2026-04-27 18:39 -12.92714 -73.54899 26550 ft 431 kts 283°
2026-04-27 18:39 -12.92031 -73.57895 26591 ft 431 kts 283°
2026-04-27 18:40 -12.91346 -73.60894 26577 ft 431 kts 283°
2026-04-27 18:40 -12.90669 -73.63863 26574 ft 432 kts 283°
2026-04-27 18:40 -12.89981 -73.66872 26577 ft 430 kts 283°
2026-04-27 18:40 -12.89306 -73.69827 26576 ft 432 kts 283°
2026-04-27 18:41 -12.88618 -73.72837 26582 ft 432 kts 283°
2026-04-27 18:41 -12.87937 -73.75816 26605 ft 431 kts 283°
2026-04-27 18:41 -12.87255 -73.78795 26612 ft 430 kts 283°
2026-04-27 18:41 -12.86574 -73.81767 26587 ft 430 kts 283°
2026-04-27 18:42 -12.85887 -73.84762 26572 ft 430 kts 283°
2026-04-27 18:42 -12.85428 -73.86768 26577 ft 431 kts 283°
2026-04-27 18:42 -12.84514 -73.90752 26569 ft 430 kts 283°
2026-04-27 18:42 -12.83833 -73.93720 26602 ft 431 kts 283°
2026-04-27 18:43 -12.83151 -73.96687 26593 ft 431 kts 283°
2026-04-27 18:43 -12.82464 -73.99678 26598 ft 431 kts 283°
2026-04-27 18:43 -12.81773 -74.02683 26631 ft 431 kts 283°
2026-04-27 18:43 -12.81089 -74.05657 26638 ft 430 kts 283°
2026-04-27 18:44 -12.80409 -74.08614 26643 ft 432 kts 283°
2026-04-27 18:44 -12.79715 -74.11626 26649 ft 432 kts 283°
2026-04-27 18:44 -12.79030 -74.14597 26651 ft 430 kts 283°
2026-04-27 18:44 -12.78344 -74.17574 26688 ft 432 kts 283°
2026-04-27 18:45 -12.77652 -74.20575 26710 ft 431 kts 283°
2026-04-27 18:45 -12.76961 -74.23570 26752 ft 431 kts 283°
2026-04-27 18:45 -12.76271 -74.26557 26755 ft 432 kts 283°
2026-04-27 18:45 -12.75582 -74.29539 26741 ft 430 kts 283°
2026-04-27 18:46 -12.74900 -74.32488 26750 ft 431 kts 283°
2026-04-27 18:46 -12.74212 -74.35465 26776 ft 430 kts 283°
2026-04-27 18:46 -12.73520 -74.38453 26785 ft 432 kts 283°
2026-04-27 18:46 -12.72823 -74.41466 26774 ft 431 kts 283°
2026-04-27 18:47 -12.72136 -74.44430 26769 ft 432 kts 283°
2026-04-27 18:47 -12.71442 -74.47427 26773 ft 432 kts 283°
2026-04-27 18:47 -12.70752 -74.50403 26783 ft 430 kts 283°
2026-04-27 18:47 -12.70055 -74.53405 26780 ft 431 kts 283°
2026-04-27 18:48 -12.69369 -74.56361 26782 ft 431 kts 283°
2026-04-27 18:48 -12.68676 -74.59341 26807 ft 430 kts 283°
2026-04-27 18:48 -12.67981 -74.62334 26815 ft 432 kts 283°
2026-04-27 18:48 -12.67288 -74.65314 26857 ft 431 kts 284°
2026-04-27 18:49 -12.66593 -74.68301 26886 ft 432 kts 284°
2026-04-27 18:49 -12.65898 -74.71289 26878 ft 432 kts 284°
2026-04-27 18:49 -12.65206 -74.74258 26902 ft 432 kts 284°
2026-04-27 18:49 -12.64504 -74.77271 26936 ft 432 kts 284°
2026-04-27 18:50 -12.63814 -74.80231 26934 ft 432 kts 284°
2026-04-27 18:50 -12.63116 -74.83223 26921 ft 432 kts 284°
2026-04-27 18:50 -12.62417 -74.86217 26935 ft 432 kts 284°
2026-04-27 18:50 -12.61720 -74.89203 26969 ft 430 kts 284°
2026-04-27 18:51 -12.61029 -74.92160 26955 ft 431 kts 284°
2026-04-27 18:51 -12.60328 -74.95158 26955 ft 430 kts 284°
2026-04-27 18:51 -12.59639 -74.98106 26963 ft 432 kts 284°
2026-04-27 18:51 -12.58933 -75.01123 26965 ft 432 kts 284°
2026-04-27 18:52 -12.58238 -75.04093 26964 ft 431 kts 284°
2026-04-27 18:52 -12.57544 -75.07052 26959 ft 432 kts 284°
2026-04-27 18:52 -12.56844 -75.10039 26954 ft 432 kts 284°
2026-04-27 18:53 -12.55445 -75.16005 26934 ft 433 kts 284°
2026-04-27 18:53 -12.54743 -75.18996 26921 ft 432 kts 284°
2026-04-27 18:53 -12.54041 -75.21984 26917 ft 431 kts 284°
2026-04-27 18:53 -12.53342 -75.24956 26904 ft 432 kts 284°
2026-04-27 18:54 -12.52643 -75.27931 26909 ft 432 kts 284°
2026-04-27 18:54 -12.51933 -75.30950 26909 ft 431 kts 284°
2026-04-27 18:54 -12.51238 -75.33902 26903 ft 433 kts 284°
2026-04-27 18:54 -12.50537 -75.36880 26909 ft 431 kts 284°
2026-04-27 18:55 -12.49833 -75.39868 26914 ft 431 kts 284°
2026-04-27 18:55 -12.49130 -75.42852 26908 ft 432 kts 284°
2026-04-27 18:55 -12.48431 -75.45813 26907 ft 431 kts 284°
2026-04-27 18:55 -12.47726 -75.48800 26907 ft 432 kts 284°
2026-04-27 18:56 -12.47025 -75.51773 26901 ft 431 kts 284°
2026-04-27 18:56 -12.46312 -75.54787 26902 ft 432 kts 284°
2026-04-27 18:56 -12.45613 -75.57748 26909 ft 432 kts 284°
2026-04-27 18:56 -12.44910 -75.60721 26914 ft 432 kts 284°
2026-04-27 18:57 -12.44204 -75.63705 26906 ft 433 kts 284°
2026-04-27 18:57 -12.43493 -75.66708 26921 ft 432 kts 284°
2026-04-27 18:57 -12.42788 -75.69687 26908 ft 433 kts 284°
2026-04-27 18:57 -12.42081 -75.72669 26908 ft 431 kts 284°
2026-04-27 18:58 -12.41377 -75.75639 26905 ft 432 kts 284°
2026-04-27 18:58 -12.40905 -75.77629 26908 ft 431 kts 284°
2026-04-27 18:58 -12.39963 -75.81596 26915 ft 432 kts 284°
2026-04-27 18:58 -12.39257 -75.84570 26906 ft 431 kts 284°
2026-04-27 18:59 -12.38543 -75.87575 26924 ft 433 kts 284°
2026-04-27 18:59 -12.37831 -75.90571 26904 ft 432 kts 284°
2026-04-27 18:59 -12.37123 -75.93548 26901 ft 433 kts 284°
2026-04-27 18:59 -12.36414 -75.96529 26936 ft 432 kts 284°
2026-04-27 19:00 -12.35705 -75.99509 26933 ft 432 kts 284°
2026-04-27 19:00 -12.35002 -76.02461 26925 ft 433 kts 284°
2026-04-27 19:00 -12.34539 -76.05486 26944 ft 433 kts 276°
2026-04-27 19:00 -12.34254 -76.08550 26900 ft 433 kts 276°
2026-04-27 19:01 -12.33971 -76.11616 26852 ft 433 kts 276°
2026-04-27 19:01 -12.33689 -76.14690 26807 ft 432 kts 276°
2026-04-27 19:01 -12.33409 -76.17741 26789 ft 433 kts 276°
2026-04-27 19:01 -12.33129 -76.20798 26773 ft 434 kts 276°
2026-04-27 19:02 -12.32847 -76.23869 26721 ft 433 kts 276°
2026-04-27 19:02 -12.32567 -76.26917 26675 ft 433 kts 276°
2026-04-27 19:02 -12.32290 -76.29925 26572 ft 403 kts 276°
2026-04-27 19:02 -12.32040 -76.32638 26383 ft 372 kts 276°
2026-04-27 19:03 -12.31806 -76.35165 25851 ft 348 kts 276°
2026-04-27 19:03 -12.31586 -76.37545 25396 ft 326 kts 276°
2026-04-27 19:03 -12.31380 -76.39775 24947 ft 307 kts 276°
2026-04-27 19:03 -12.31246 -76.41215 24648 ft 296 kts 276°
2026-04-27 19:04 -12.30996 -76.43906 24066 ft 280 kts 275°
2026-04-27 19:04 -12.30816 -76.45853 23662 ft 278 kts 275°
2026-04-27 19:04 -12.30632 -76.47835 23269 ft 280 kts 275°
2026-04-27 19:04 -12.30449 -76.49804 22894 ft 281 kts 275°
2026-04-27 19:05 -12.30264 -76.51798 22499 ft 280 kts 275°
2026-04-27 19:05 -12.30087 -76.53700 22133 ft 280 kts 274°
2026-04-27 19:05 -12.29912 -76.55581 21730 ft 280 kts 275°
2026-04-27 19:05 -12.29728 -76.57563 21253 ft 279 kts 275°
2026-04-27 19:06 -12.29545 -76.59527 20756 ft 278 kts 275°
2026-04-27 19:06 -12.29362 -76.61498 20293 ft 277 kts 276°
2026-04-27 19:06 -12.29181 -76.63433 19834 ft 276 kts 276°
2026-04-27 19:06 -12.28999 -76.65376 19341 ft 276 kts 277°
2026-04-27 19:07 -12.28818 -76.67323 18856 ft 276 kts 278°
2026-04-27 19:07 -12.28635 -76.69270 18400 ft 276 kts 278°
2026-04-27 19:07 -12.28452 -76.71228 17962 ft 276 kts 278°
2026-04-27 19:07 -12.28272 -76.73144 17533 ft 276 kts 279°
2026-04-27 19:08 -12.28088 -76.75106 17052 ft 275 kts 279°
2026-04-27 19:08 -12.27908 -76.77025 16643 ft 272 kts 278°
2026-04-27 19:08 -12.27730 -76.78919 16150 ft 270 kts 278°
2026-04-27 19:08 -12.27554 -76.80788 15729 ft 269 kts 278°
2026-04-27 19:09 -12.27376 -76.82684 15106 ft 266 kts 278°
2026-04-27 19:09 -12.27202 -76.84531 14578 ft 263 kts 277°
2026-04-27 19:09 -12.27030 -76.86356 14155 ft 261 kts 277°
2026-04-27 19:09 -12.26860 -76.88159 13858 ft 259 kts 276°
2026-04-27 19:10 -12.26688 -76.89980 13361 ft 257 kts 276°
2026-04-27 19:10 -12.26520 -76.91768 12924 ft 255 kts 276°
2026-04-27 19:10 -12.26353 -76.93528 12452 ft 253 kts 275°
2026-04-27 19:10 -12.26240 -76.94726 12079 ft 251 kts 275°
2026-04-27 19:11 -12.26019 -76.97057 11386 ft 248 kts 275°
2026-04-27 19:11 -12.25781 -76.98763 11002 ft 245 kts 293°
2026-04-27 19:11 -12.24776 -77.00050 10622 ft 239 kts 328°
2026-04-27 19:11 -12.23351 -77.00848 10177 ft 234 kts 332°
2026-04-27 19:12 -12.21938 -77.01581 9698 ft 232 kts 332°
2026-04-27 19:12 -12.20507 -77.02306 9216 ft 231 kts 333°
2026-04-27 19:12 -12.19075 -77.03024 8729 ft 229 kts 333°
2026-04-27 19:12 -12.17756 -77.03680 8278 ft 227 kts 334°
2026-04-27 19:13 -12.17223 -77.03944 8095 ft 227 kts 334°
2026-04-27 19:13 -12.15813 -77.04649 7606 ft 225 kts 334°
2026-04-27 19:13 -12.14867 -77.05122 7278 ft 224 kts 334°
2026-04-27 19:13 -12.13487 -77.05811 6791 ft 222 kts 332°
2026-04-27 19:14 -12.12419 -77.06848 6312 ft 218 kts 292°
2026-04-27 19:14 -12.12294 -77.08337 5865 ft 212 kts 249°
2026-04-27 19:14 -12.13143 -77.09507 5429 ft 207 kts 218°
2026-04-27 19:14 -12.14287 -77.10380 4949 ft 207 kts 215°
2026-04-27 19:15 -12.15492 -77.11180 4441 ft 206 kts 195°
2026-04-27 19:15 -12.16869 -77.11166 3987 ft 200 kts 159°
2026-04-27 19:15 -12.18158 -77.10638 3509 ft 199 kts 155°
2026-04-27 19:15 -12.19359 -77.09968 2995 ft 197 kts 130°
2026-04-27 19:16 -12.19865 -77.08717 2528 ft 195 kts 88°
2026-04-27 19:16 -12.19656 -77.07844 2233 ft 195 kts 67°
2026-04-27 19:16 -12.18829 -77.06248 1613 ft 197 kts 63°
2026-04-27 19:16 -12.18175 -77.05083 1519 ft 181 kts 57°
2026-04-27 19:17 -12.17357 -77.04308 1485 ft 165 kts 24°
2026-04-27 19:17 -12.16283 -77.04088 1545 ft 158 kts
2026-04-27 19:17 -12.15298 -77.04383 1465 ft 159 kts 326°
2026-04-27 19:17 -12.14418 -77.05082 1326 ft 160 kts 320°
2026-04-27 19:18 -12.13549 -77.05804 1199 ft 160 kts 320°
2026-04-27 19:18 -12.12683 -77.06525 1174 ft 160 kts 320°
2026-04-27 19:18 -12.11825 -77.07240 999 ft 159 kts 320°
2026-04-27 19:18 -12.10893 -77.07858 999 ft 160 kts 336°
2026-04-27 19:19 -12.09862 -77.08239 999 ft 161 kts 342°
2026-04-27 19:19 -12.08820 -77.08573 1006 ft 161 kts 344°
2026-04-27 19:19 -12.07770 -77.08892 993 ft 161 kts 343°
2026-04-27 19:19 -12.06700 -77.09239 997 ft 161 kts 343°
2026-04-27 19:20 -12.05652 -77.09643 985 ft 161 kts 332°
2026-04-27 19:20 -12.04657 -77.10307 995 ft 160 kts 324°
2026-04-27 19:20 -12.03662 -77.10973 834 ft 161 kts 329°
2026-04-27 19:20 -12.02668 -77.11511 590 ft 161 kts 336°
2026-04-27 19:21 -12.01677 -77.12048 436 ft 161 kts 318°
2026-04-27 19:21 -12.00947 -77.12891 316 ft 158 kts 306°
2026-04-27 19:21 -12.00470 -77.13868 584 ft 153 kts 277°
2026-04-27 19:21 -12.00671 -77.14893 830 ft 149 kts 233°
2026-04-27 19:22 -12.01304 -77.15632 1101 ft 149 kts 229°
2026-04-27 19:22 -12.01950 -77.16447 1395 ft 150 kts 230°
2026-04-27 19:22 -12.02693 -77.17193 1601 ft 149 kts 206°
2026-04-27 19:22 -12.03642 -77.17587 1794 ft 149 kts 200°
2026-04-27 19:23 -12.04608 -77.17965 1817 ft 148 kts 200°
2026-04-27 19:23 -12.05576 -77.18347 1781 ft 147 kts 198°
2026-04-27 19:23 -12.06588 -77.18305 1652 ft 147 kts 155°
2026-04-27 19:23 -12.07449 -77.17752 1581 ft 147 kts 148°
2026-04-27 19:24 -12.08313 -77.17178 1428 ft 146 kts 148°
2026-04-27 19:24 -12.09162 -77.16614 1276 ft 146 kts 148°
2026-04-27 19:24 -12.10012 -77.16049 1136 ft 146 kts 148°
2026-04-27 19:24 -12.10868 -77.15482 988 ft 145 kts 148°
2026-04-27 19:25 -12.11711 -77.14923 840 ft 144 kts 148°
2026-04-27 19:25 -12.12549 -77.14367 798 ft 142 kts 148°
2026-04-27 19:25 -12.13354 -77.13775 782 ft 144 kts 134°
2026-04-27 19:25 -12.13798 -77.12864 797 ft 147 kts 105°
2026-04-27 19:26 -12.13870 -77.11804 800 ft 149 kts 94°
2026-04-27 19:26 -12.13879 -77.11021 795 ft 149 kts 94°
2026-04-27 19:26 -12.13891 -77.09964 795 ft 149 kts 94°
2026-04-27 19:26 -12.13903 -77.08904 795 ft 149 kts 94°
2026-04-27 19:27 -12.13855 -77.07837 789 ft 151 kts 84°
2026-04-27 19:27 -12.13558 -77.06831 779 ft 154 kts 62°
2026-04-27 19:27 -12.12810 -77.06091 796 ft 158 kts 31°
2026-04-27 19:27 -12.11836 -77.05904 790 ft 161 kts 352°